Darstellungsparameter: Aktuell verwendete Einstellungen:
Skalierung der Graphiken ... ?
xyx+y,   Skalierungsfaktor:      Skalierung: Modus: x, Faktor: 1
Darstellungszeitraum ... ?
Vom - - bis: - -   Zeitraum: 25.11.2020 - 25.11.2020
Min/Max/Avg-Anzeige ... ?
Zeige MMA aktuell
Zeige MMA Monat
Zeige MMA alles
Zeige --A aktuell
Zeige --A Monat
Zeige --A alles
Keine MMA-Anzeige
MMA:
Average (ber die Originaldaten)
MMA-Basis: 25.11.2020 - 25.11.2020
Quicknavigation für Darstellung... ?
Tage:      1T, 2T, 3T, 5T -1T -2T -3T -5T +1T +2T +3T +5T
Wochen: 1W, 2W, 3W -1W -2W -3W +1W +2W +3W
Monate: 1M, 3M, 6M -1M -3M -6M +1M +3M +6M
Jahre:    1J, 3J, 5J, 10J -1J -3J -5J -10J +1J +3J +5J +10J
Nutze für die Darstellung ... ?
Originaldaten oder Mittelwerte auf ...
Stundenbasis Tagesbasis Wochenbasis
Monatsbasis Jahresbasis      Datenbasis: Original-Daten
Darstellen als:
Statistik (Auto) Statistik J:M      Darstellung:

Der gewünschte Datumsbereich war nicht gültig/verfügbar und wurde korrigiert....
Das angegebene Enddatum (28.12.2020 23:59:59) liegt in der Zukunft.
Das angegebene Startdatum (26.12.2020 00:00:00) liegt in der Zukunft.


Zur Graphik,    zurück zur Übersicht aller Sensoren.
 
Tabellarische Datenbersicht: ?
 
Sensor: Nr:Datum:Temp:Abs-Feuchte:Windchill:Wind:
Aussen-T/F 1 25-11-2020 01:00:00 6.2 C 6.62 g/m*3 6.2 C 0 km/h
2 25-11-2020 01:05:00 6.2 C 6.62 g/m*3 6.2 C 0 km/h
3 25-11-2020 01:10:00 6.2 C 6.62 g/m*3 6.2 C 0 km/h
4 25-11-2020 01:15:00 6.2 C 6.62 g/m*3 6.2 C 0 km/h
5 25-11-2020 01:20:00 6.2 C 6.62 g/m*3 6.2 C 0 km/h
6 25-11-2020 01:25:00 6.2 C 6.62 g/m*3 6.2 C 0 km/h
7 25-11-2020 01:30:00 6.2 C 6.62 g/m*3 6.2 C 0 km/h
8 25-11-2020 01:35:00 6.2 C 6.62 g/m*3 6.2 C 0 km/h
9 25-11-2020 01:40:00 6.2 C 6.62 g/m*3 6.2 C 0 km/h
10 25-11-2020 01:45:00 6.1 C 6.58 g/m*3 6.1 C 0 km/h
11 25-11-2020 01:50:00 6.1 C 6.58 g/m*3 6.1 C 0 km/h
12 25-11-2020 01:55:00 6.1 C 6.58 g/m*3 6.1 C 0 km/h
13 25-11-2020 02:00:00 6.1 C 6.58 g/m*3 6.1 C 0 km/h
14 25-11-2020 02:05:00 6.1 C 6.58 g/m*3 6.1 C 0 km/h
15 25-11-2020 02:10:00 6.1 C 6.58 g/m*3 6.1 C 0 km/h
16 25-11-2020 02:15:00 6.1 C 6.58 g/m*3 6.1 C 0 km/h
17 25-11-2020 02:20:00 6.1 C 6.58 g/m*3 6.1 C 0 km/h
18 25-11-2020 02:25:00 6.1 C 6.58 g/m*3 6.1 C 1.6 km/h
19 25-11-2020 02:30:00 6 C 6.53 g/m*3 6 C 1.6 km/h
20 25-11-2020 02:35:00 6.1 C 6.58 g/m*3 6.1 C 0 km/h
21 25-11-2020 02:40:00 6.1 C 6.58 g/m*3 6.1 C 0 km/h
22 25-11-2020 02:45:00 6 C 6.53 g/m*3 6 C 0 km/h
23 25-11-2020 02:50:00 6 C 6.53 g/m*3 6 C 0 km/h
24 25-11-2020 02:55:00 5.9 C 6.49 g/m*3 5.9 C 0 km/h
25 25-11-2020 03:00:00 5.9 C 6.49 g/m*3 5.9 C 4.8 km/h
Sensor: Nr:Datum:Temp:Abs-Feuchte:Windchill:Wind:
Aussen-T/F 26 25-11-2020 03:05:00 5.9 C 6.49 g/m*3 5.9 C 0 km/h
27 25-11-2020 03:10:00 5.9 C 6.49 g/m*3 5.9 C 0 km/h
28 25-11-2020 03:15:00 5.9 C 6.56 g/m*3 5.9 C 0 km/h
29 25-11-2020 03:20:00 5.9 C 6.49 g/m*3 5.9 C 0 km/h
30 25-11-2020 03:25:00 5.9 C 6.56 g/m*3 5.9 C 0 km/h
31 25-11-2020 03:30:00 5.8 C 6.52 g/m*3 5.8 C 0 km/h
32 25-11-2020 03:35:00 5.8 C 6.52 g/m*3 5.8 C 0 km/h
33 25-11-2020 03:40:00 5.8 C 6.52 g/m*3 5.8 C 0 km/h
34 25-11-2020 03:45:00 5.8 C 6.52 g/m*3 5.8 C 1.6 km/h
35 25-11-2020 03:50:00 5.8 C 6.52 g/m*3 5.8 C 0 km/h
36 25-11-2020 03:55:00 5.8 C 6.52 g/m*3 5.8 C 0 km/h
37 25-11-2020 04:00:00 5.7 C 6.48 g/m*3 5.7 C 0 km/h
38 25-11-2020 04:05:00 5.7 C 6.48 g/m*3 5.7 C 0 km/h
39 25-11-2020 04:10:00 5.7 C 6.48 g/m*3 5.7 C 0 km/h
40 25-11-2020 04:15:00 5.7 C 6.48 g/m*3 5.7 C 0 km/h
41 25-11-2020 04:20:00 5.6 C 6.43 g/m*3 5.6 C 0 km/h
42 25-11-2020 04:25:00 5.6 C 6.43 g/m*3 5.6 C 0 km/h
43 25-11-2020 04:30:00 5.6 C 6.5 g/m*3 5.6 C 3.2 km/h
44 25-11-2020 04:35:00 5.5 C 6.39 g/m*3 5.5 C 0 km/h
45 25-11-2020 04:40:00 5.4 C 6.35 g/m*3 5.4 C 0 km/h
46 25-11-2020 04:45:00 5.4 C 6.35 g/m*3 5.4 C 0 km/h
47 25-11-2020 04:50:00 5.3 C 6.31 g/m*3 5.3 C 0 km/h
48 25-11-2020 04:55:00 5.2 C 6.27 g/m*3 5.2 C 1.6 km/h
49 25-11-2020 05:00:00 5.1 C 6.22 g/m*3 5.1 C 0 km/h
50 25-11-2020 05:05:00 4.9 C 6.14 g/m*3 4.9 C 0 km/h
Sensor: Nr:Datum:Temp:Abs-Feuchte:Windchill:Wind:
Aussen-T/F 51 25-11-2020 05:10:00 4.8 C 6.1 g/m*3 4.8 C 1.6 km/h
52 25-11-2020 05:15:00 4.7 C 6.06 g/m*3 4.7 C 0 km/h
53 25-11-2020 05:20:00 4.6 C 6.02 g/m*3 4.6 C 0 km/h
54 25-11-2020 05:25:00 4.4 C 6.01 g/m*3 4.4 C 0 km/h
55 25-11-2020 05:30:00 4.3 C 5.97 g/m*3 4.3 C 0 km/h
56 25-11-2020 05:35:00 4.2 C 5.93 g/m*3 4.2 C 0 km/h
57 25-11-2020 05:40:00 4.1 C 5.89 g/m*3 4.1 C 1.6 km/h
58 25-11-2020 05:45:00 4 C 5.85 g/m*3 4 C 3.2 km/h
59 25-11-2020 05:50:00 3.9 C 5.81 g/m*3 3.9 C 1.6 km/h
60 25-11-2020 05:55:00 3.8 C 5.83 g/m*3 3.8 C 0 km/h
61 25-11-2020 06:00:00 3.8 C 5.83 g/m*3 3.8 C 0 km/h
62 25-11-2020 06:05:00 3.7 C 5.8 g/m*3 3.7 C 1.6 km/h
63 25-11-2020 06:10:00 3.7 C 5.8 g/m*3 3.7 C 3.2 km/h
64 25-11-2020 06:15:00 3.6 C 5.76 g/m*3 3.6 C 1.6 km/h
65 25-11-2020 06:20:00 3.6 C 5.76 g/m*3 3.6 C 3.2 km/h
66 25-11-2020 06:25:00 3.4 C 5.68 g/m*3 3.4 C 3.2 km/h
67 25-11-2020 06:30:00 3.3 C 5.64 g/m*3 3.3 C 1.6 km/h
68 25-11-2020 06:35:00 3.3 C 5.7 g/m*3 3.3 C 0 km/h
69 25-11-2020 06:40:00 3.3 C 5.7 g/m*3 3.3 C 3.2 km/h
70 25-11-2020 06:45:00 3.2 C 5.66 g/m*3 3.2 C 0 km/h
71 25-11-2020 06:50:00 3.2 C 5.66 g/m*3 3.2 C 0 km/h
72 25-11-2020 06:55:00 3.1 C 5.63 g/m*3 3.1 C 0 km/h
73 25-11-2020 07:00:00 3.1 C 5.63 g/m*3 3.1 C 3.2 km/h
74 25-11-2020 07:05:00 3 C 5.59 g/m*3 3 C 1.6 km/h
75 25-11-2020 07:10:00 2.9 C 5.55 g/m*3 2.9 C 1.6 km/h
Sensor: Nr:Datum:Temp:Abs-Feuchte:Windchill:Wind:
Aussen-T/F 76 25-11-2020 07:15:00 2.8 C 5.51 g/m*3 2.8 C 1.6 km/h
77 25-11-2020 07:20:00 2.8 C 5.51 g/m*3 2.8 C 0 km/h
78 25-11-2020 07:25:00 2.7 C 5.48 g/m*3 2.7 C 0 km/h
79 25-11-2020 07:30:00 2.7 C 5.48 g/m*3 2.7 C 0 km/h
80 25-11-2020 07:35:00 2.7 C 5.48 g/m*3 2.7 C 0 km/h
81 25-11-2020 07:40:00 2.7 C 5.54 g/m*3 2.7 C 0 km/h
82 25-11-2020 07:45:00 2.7 C 5.54 g/m*3 2.7 C 0 km/h
83 25-11-2020 07:50:00 2.7 C 5.54 g/m*3 2.7 C 0 km/h
84 25-11-2020 07:55:00 2.6 C 5.5 g/m*3 2.6 C 0 km/h
85 25-11-2020 08:00:00 2.6 C 5.5 g/m*3 2.6 C 0 km/h
86 25-11-2020 08:05:00 2.6 C 5.5 g/m*3 2.6 C 0 km/h
87 25-11-2020 08:10:00 2.6 C 5.5 g/m*3 2.6 C 0 km/h
88 25-11-2020 08:15:00 2.6 C 5.5 g/m*3 2.6 C 0 km/h
89 25-11-2020 08:20:00 2.5 C 5.46 g/m*3 2.5 C 0 km/h
90 25-11-2020 08:25:00 2.5 C 5.46 g/m*3 2.5 C 0 km/h
91 25-11-2020 08:30:00 2.4 C 5.42 g/m*3 2.4 C 0 km/h
92 25-11-2020 08:35:00 2.5 C 5.46 g/m*3 2.5 C 0 km/h
93 25-11-2020 08:40:00 2.5 C 5.46 g/m*3 2.5 C 0 km/h
94 25-11-2020 08:45:00 2.5 C 5.46 g/m*3 2.5 C 0 km/h
95 25-11-2020 08:50:00 2.6 C 5.5 g/m*3 2.6 C 0 km/h
96 25-11-2020 08:55:00 2.6 C 5.5 g/m*3 2.6 C 0 km/h
97 25-11-2020 09:00:00 2.6 C 5.5 g/m*3 2.6 C 0 km/h
98 25-11-2020 09:05:00 2.7 C 5.54 g/m*3 2.7 C 0 km/h
99 25-11-2020 09:10:00 2.7 C 5.54 g/m*3 2.7 C 0 km/h
100 25-11-2020 09:15:00 2.8 C 5.57 g/m*3 2.8 C 0 km/h
Sensor: Nr:Datum:Temp:Abs-Feuchte:Windchill:Wind:
Aussen-T/F 101 25-11-2020 09:20:00 2.8 C 5.63 g/m*3 2.8 C 0 km/h
102 25-11-2020 09:25:00 2.9 C 5.67 g/m*3 2.9 C 0 km/h
103 25-11-2020 09:30:00 2.9 C 5.67 g/m*3 2.9 C 0 km/h
104 25-11-2020 09:35:00 3 C 5.71 g/m*3 3 C 0 km/h
105 25-11-2020 09:40:00 3.1 C 5.75 g/m*3 3.1 C 0 km/h
106 25-11-2020 09:45:00 3.2 C 5.79 g/m*3 3.2 C 0 km/h
107 25-11-2020 09:50:00 3.2 C 5.79 g/m*3 3.2 C 0 km/h
108 25-11-2020 09:55:00 3.3 C 5.82 g/m*3 3.3 C 0 km/h
109 25-11-2020 10:00:00 3.3 C 5.82 g/m*3 3.3 C 0 km/h
110 25-11-2020 10:05:00 3.4 C 5.86 g/m*3 3.4 C 0 km/h
111 25-11-2020 10:10:00 3.5 C 5.9 g/m*3 3.5 C 0 km/h
112 25-11-2020 10:15:00 3.6 C 5.94 g/m*3 3.6 C 0 km/h
113 25-11-2020 10:20:00 3.7 C 5.98 g/m*3 3.7 C 0 km/h
114 25-11-2020 10:25:00 3.8 C 6.02 g/m*3 3.8 C 0 km/h
115 25-11-2020 10:30:00 4 C 6.1 g/m*3 4 C 0 km/h
116 25-11-2020 10:35:00 4.2 C 6.25 g/m*3 4.2 C 0 km/h
117 25-11-2020 10:40:00 4.4 C 6.27 g/m*3 4.4 C 0 km/h
118 25-11-2020 10:45:00 4.6 C 6.42 g/m*3 4.6 C 0 km/h
119 25-11-2020 10:50:00 4.8 C 6.5 g/m*3 4.8 C 0 km/h
120 25-11-2020 10:55:00 5 C 6.59 g/m*3 5 C 0 km/h
121 25-11-2020 11:00:00 5.2 C 6.68 g/m*3 5.2 C 0 km/h
122 25-11-2020 11:05:00 5.3 C 6.72 g/m*3 5.3 C 0 km/h
123 25-11-2020 11:10:00 5.4 C 6.77 g/m*3 5.4 C 0 km/h
124 25-11-2020 11:15:00 5.6 C 6.86 g/m*3 5.6 C 0 km/h
125 25-11-2020 11:20:00 5.6 C 6.86 g/m*3 5.6 C 0 km/h
Sensor: Nr:Datum:Temp:Abs-Feuchte:Windchill:Wind:
Aussen-T/F 126 25-11-2020 11:25:00 5.7 C 6.83 g/m*3 5.7 C 0 km/h
127 25-11-2020 11:30:00 5.7 C 6.83 g/m*3 5.7 C 0 km/h
128 25-11-2020 11:35:00 5.7 C 6.83 g/m*3 5.7 C 0 km/h
129 25-11-2020 11:40:00 5.7 C 6.83 g/m*3 5.7 C 0 km/h
130 25-11-2020 11:45:00 5.7 C 6.83 g/m*3 5.7 C 0 km/h
131 25-11-2020 11:50:00 5.7 C 6.83 g/m*3 5.7 C 4.8 km/h
132 25-11-2020 11:55:00 5.7 C 6.76 g/m*3 5.7 C 0 km/h
133 25-11-2020 12:00:00 5.7 C 6.76 g/m*3 5.7 C 0 km/h
134 25-11-2020 12:05:00 5.7 C 6.76 g/m*3 5.7 C 0 km/h
135 25-11-2020 12:10:00 5.7 C 6.76 g/m*3 5.7 C 0 km/h

Legende:
   Min
   Max


Maximal/Minimal-Werte vom 25.11.2020 - 25.11.2020

Sensor Min Max Avg
Temp
(Aussen-T/F)
2.4 °C
25-11-2020  08:30:00
6.2 °C
25-11-2020  01:00:00
4.51 °C
Abs-Feuchte
(Aussen-T/F)
5.42 g/m*3
25-11-2020  08:30:00
6.86 g/m*3
25-11-2020  11:15:00
6.1 g/m*3
Windchill
(Aussen-T/F)
2.4 C
25-11-2020  08:30:00
6.2 C
25-11-2020  01:00:00
4.48 C

Die Daten stammen von einer Davis Vantage Pro 2 Wetter-Station und werden unter Linux mit der Software wview2wettercgi und aufbereitet. Alle Angaben erfolgen ohne Gewähr für ihre Vollständigkeit oder Richtigkeit.
Kontakt: Rainer Krienke krienke@uni-koblenz.de . Meine Webseiten an der Uni Koblenz oder privat.
Version: $Revision: 0.78 $